Big Rapids, MI

9:31 PM EST on November 19, 2017 (GMT -0500)
Roben-Hood

Weather History for KRQB - October, 2012

Change the Weather History Date:

Saturday, October 20, 2012

  Actual Average Record
Temperature  
Mean Temperature 50 °F -  
Max Temperature 57 °F 54 °F 78 °F (2003)
Min Temperature 40 °F 33 °F 23 °F (1972)
Degree Days  
Heating Degree Days 16    
Moisture  
Dew Point 44 °F    
Average Humidity 88    
Maximum Humidity 97    
Minimum Humidity 56    
Precipitation  
Precipitation 0.00 in - - ()
Sea Level Pressure  
Sea Level Pressure 29.70 in    
Wind  
Wind Speed 2 mph (WNW)    
Max Wind Speed 13 mph    
Max Gust Speed 18 mph    
Visibility 7 miles    
Events Fog , Rain    
Averages and records for this station are not official NWS values.
T = Trace of Precipitation, MM = Missing Value Source: NWS Daily Summary

Daily Weather History Graph

Daily Weather History Graph

Search for Another Location

Airport or City:

Trip Planner

Search our weather history database for the weather conditions in past years. The results will help you decide how hot, cold, wet, or windy it might be!

Date:

Astronomy

Oct. 20, 2012 Rise Set
Actual Time 8:03 AM EDT 6:49 PM EDT
Civil Twilight 7:33 AM EDT 7:18 PM EDT
Nautical Twilight 7:00 AM EDT 7:52 PM EDT
Astronomical Twilight 6:27 AM EDT 8:25 PM EDT
Moon 1:44 PM EDT 11:29 PM EDT
Length of Visible Light 11h 44m
Length of Day
10h 46m
Waxing Crescent, 34% of the Moon is Illuminated
Oct 20
Waxing Crescent
Oct 21
First Quarter
Oct 29
Full
Nov 6
Last Quarter
Nov 13
New

Hourly Weather History & Observations

Time (EDT) Temp. Windchill Dew Point Humidity Pressure Visibility Wind Dir Wind Speed Gust Speed Precip Events Conditions
12:15 AM 45.0 °F - 43.7 °F 95% 29.55 in 10.0 mi Calm Calm - N/A   Overcast
12:34 AM 44.8 °F - 43.7 °F 96% 29.55 in 7.0 mi Calm Calm - N/A   Overcast
12:55 AM 44.4 °F - 43.0 °F 95% 29.55 in 7.0 mi Calm Calm - N/A   Overcast
1:15 AM 44.2 °F - 43.2 °F 96% 29.55 in 2.5 mi Calm Calm - N/A   Overcast
1:34 AM 44.2 °F - 43.2 °F 96% 29.55 in 0.8 mi Calm Calm - N/A   Overcast
1:55 AM 44.6 °F - 43.5 °F 96% 29.56 in 1.5 mi Calm Calm - N/A   Overcast
2:15 AM 44.6 °F - 43.5 °F 96% 29.56 in 0.8 mi Calm Calm - N/A   Overcast
2:34 AM 44.2 °F - 43.2 °F 96% 29.56 in 0.5 mi Calm Calm - N/A Fog Fog
2:55 AM 44.2 °F 42.7 °F 43.2 °F 96% 29.57 in 0.5 mi NW 3.5 mph - N/A Fog Fog
3:15 AM 43.9 °F - 42.8 °F 96% 29.58 in 0.5 mi Calm Calm - N/A Fog Fog
3:34 AM 43.9 °F - 42.8 °F 96% 29.58 in 0.5 mi Calm Calm - N/A Fog Fog
3:55 AM 43.7 °F - 42.8 °F 97% 29.58 in 0.5 mi Calm Calm - N/A Fog Fog
4:15 AM 43.7 °F - 42.8 °F 97% 29.58 in 1.8 mi Calm Calm - N/A   Overcast
4:34 AM 43.7 °F - 42.8 °F 97% 29.58 in 5.0 mi Calm Calm - N/A   Overcast
4:55 AM 43.7 °F - 42.8 °F 97% 29.59 in 7.0 mi Calm Calm - N/A   Overcast
5:15 AM 43.5 °F - 42.6 °F 97% 29.59 in 10.0 mi Calm Calm - N/A   Overcast
5:34 AM 43.3 °F - 42.4 °F 97% 29.59 in 10.0 mi Calm Calm - N/A   Mostly Cloudy
5:55 AM 42.8 °F - 41.9 °F 97% 29.59 in 10.0 mi Calm Calm - N/A   Mostly Cloudy
6:14 AM 42.8 °F - 41.9 °F 97% 29.60 in 2.5 mi Calm Calm - N/A   Overcast
6:34 AM 42.8 °F - 41.9 °F 97% 29.61 in 4.0 mi Calm Calm - N/A   Overcast
6:55 AM 43.3 °F - 42.3 °F 96% 29.61 in 10.0 mi Calm Calm - N/A   Overcast
7:15 AM 43.2 °F - 42.1 °F 96% 29.61 in 10.0 mi Calm Calm - N/A   Overcast
7:34 AM 43.7 °F - 42.4 °F 95% 29.62 in 10.0 mi Calm Calm - N/A   Overcast
7:55 AM 44.1 °F 42.5 °F 43.0 °F 96% 29.63 in 7.0 mi WNW 3.5 mph - N/A   Overcast
8:14 AM 44.6 °F 43.1 °F 43.7 °F 97% 29.63 in 5.0 mi NW 3.5 mph - N/A   Overcast
8:34 AM 44.8 °F 43.3 °F 43.7 °F 96% 29.64 in 7.0 mi WNW 3.5 mph - N/A   Overcast
8:55 AM 45.0 °F - 43.5 °F 95% 29.64 in 10.0 mi Calm Calm - N/A   Overcast
9:14 AM 45.1 °F - 43.7 °F 95% 29.65 in 7.0 mi Calm Calm - N/A   Overcast
9:35 AM 45.5 °F 44.2 °F 43.9 °F 94% 29.66 in 10.0 mi NNW 3.5 mph - N/A   Overcast
9:55 AM 46.0 °F 44.8 °F 44.2 °F 93% 29.66 in 10.0 mi NW 3.5 mph - N/A   Overcast
10:14 AM 46.8 °F - 44.6 °F 92% 29.67 in 10.0 mi NW 3.5 mph - N/A   Overcast
10:35 AM 47.3 °F - 44.8 °F 91% 29.68 in 10.0 mi NW 4.6 mph - N/A   Overcast
10:55 AM 48.2 °F - 45.3 °F 90% 29.68 in 10.0 mi WNW 6.9 mph - N/A   Overcast
11:14 AM 49.1 °F - 45.1 °F 86% 29.69 in 10.0 mi NW 8.1 mph - N/A   Overcast
11:35 AM 49.8 °F - 45.3 °F 84% 29.69 in 10.0 mi WNW 8.1 mph - N/A   Mostly Cloudy
11:55 AM 51.3 °F - 45.7 °F 81% 29.69 in 10.0 mi NW 9.2 mph - N/A   Mostly Cloudy
12:14 PM 52.0 °F - 45.3 °F 78% 29.70 in 10.0 mi NW 8.1 mph - N/A   Overcast
12:35 PM 52.7 °F - 45.1 °F 75% 29.70 in 10.0 mi NW 8.1 mph - N/A   Overcast
12:55 PM 53.8 °F - 43.7 °F 69% 29.70 in 10.0 mi NNW 8.1 mph - N/A   Mostly Cloudy
1:14 PM 53.6 °F - 42.6 °F 66% 29.71 in 10.0 mi NW 9.2 mph - N/A   Mostly Cloudy
1:35 PM 53.2 °F - 42.1 °F 66% 29.70 in 10.0 mi NW 8.1 mph - N/A   Mostly Cloudy
1:55 PM 56.3 °F - 43.5 °F 62% 29.70 in 10.0 mi WNW 11.5 mph 18.4 mph N/A   Overcast
2:14 PM 54.3 °F - 42.6 °F 65% 29.71 in 10.0 mi NW 10.4 mph - N/A   Overcast
2:35 PM 55.0 °F - 41.4 °F 60% 29.71 in 10.0 mi WNW 6.9 mph - N/A   Overcast
2:55 PM 57.0 °F - 42.3 °F 58% 29.71 in 10.0 mi West 6.9 mph - N/A   Overcast
3:14 PM 55.8 °F - 40.1 °F 56% 29.71 in 10.0 mi NW 5.8 mph - N/A   Overcast
3:35 PM 55.4 °F - 40.5 °F 57% 29.72 in 10.0 mi WNW 9.2 mph - N/A   Overcast
3:55 PM 54.7 °F - 41.9 °F 62% 29.73 in 10.0 mi WNW 10.4 mph - N/A   Overcast
4:14 PM 52.0 °F - 44.6 °F 76% 29.75 in 5.0 mi NW 8.1 mph - N/A Rain Light Rain
4:35 PM 50.9 °F - 43.9 °F 77% 29.76 in 2.0 mi NNW 3.5 mph - N/A   Overcast
4:54 PM 50.9 °F - 44.6 °F 79% 29.76 in 7.0 mi WNW 5.8 mph - N/A Rain Light Rain
5:14 PM 51.4 °F - 45.1 °F 79% 29.78 in 10.0 mi WNW 6.9 mph - N/A Rain Light Rain
5:35 PM 50.9 °F - 45.3 °F 81% 29.78 in 10.0 mi West 5.8 mph - N/A Rain Light Rain
5:54 PM 50.9 °F - 45.7 °F 82% 29.78 in 10.0 mi WNW 12.7 mph - N/A   Overcast
6:15 PM 50.0 °F - 46.9 °F 89% 29.79 in 5.0 mi West 6.9 mph - N/A   Unknown
6:35 PM 49.8 °F - 47.1 °F 90% 29.79 in 10.0 mi West 6.9 mph - N/A   Overcast
6:54 PM 49.3 °F - 46.8 °F 91% 29.79 in 10.0 mi West 4.6 mph - N/A   Mostly Cloudy
7:15 PM 48.4 °F - 46.4 °F 93% 29.80 in 10.0 mi NW 5.8 mph - N/A   Scattered Clouds
7:35 PM 47.5 °F - 45.5 °F 93% 29.80 in 10.0 mi Calm Calm - N/A   Clear
7:54 PM 47.3 °F - 45.1 °F 92% 29.81 in 10.0 mi Calm Calm - N/A   Clear
8:15 PM 46.8 °F - 45.1 °F 94% 29.82 in 10.0 mi Calm Calm - N/A   Mostly Cloudy
8:35 PM 47.7 °F - 46.0 °F 94% 29.83 in 10.0 mi West 4.6 mph - N/A   Mostly Cloudy
8:54 PM 47.7 °F - 45.9 °F 93% 29.83 in 10.0 mi WNW 3.5 mph - N/A   Overcast
9:15 PM 48.0 °F - 45.9 °F 92% 29.85 in 10.0 mi WNW 5.8 mph - N/A   Overcast
9:35 PM 47.3 °F - 45.1 °F 92% 29.85 in 10.0 mi Calm Calm - N/A   Mostly Cloudy
9:54 PM 46.6 °F - 44.6 °F 93% 29.85 in 10.0 mi Calm Calm - N/A   Scattered Clouds
10:15 PM 45.9 °F - 44.2 °F 94% 29.86 in 10.0 mi Calm Calm - N/A   Clear
10:35 PM 44.6 °F - 43.0 °F 94% 29.87 in 7.0 mi Calm Calm - N/A   Clear
10:54 PM 43.7 °F - 42.3 °F 95% 29.87 in 5.0 mi Calm Calm - N/A   Clear
11:15 PM 42.4 °F - 41.2 °F 95% 29.87 in 1.8 mi Calm Calm - N/A   Mist
11:35 PM 42.3 °F - 41.2 °F 96% 29.87 in 2.0 mi Calm Calm - N/A   Clear
11:54 PM 40.8 °F - 39.9 °F 97% 29.87 in 0.5 mi Calm Calm - N/A Fog Fog